This is the latest recevied weather packets stored in our database for station/object KD4KKF. If no packets are shown the sender has not sent any weather packets the latest 10 day(s).
| Time | Temp. | Humidity | Pressure | Rain* | Wind** | Luminosity | Snow |
|---|---|---|---|---|---|---|---|
| 1778027436 | 22.22° C | 77% | 1009.4 hPa | 0 mm | - | 4 W/m² | - |
| 1778027132 | 22.22° C | 77% | 1009.7 hPa | 0 mm | - | 8 W/m² | - |
| 1778026828 | 22.22° C | 76% | 1009.7 hPa | 0 mm | - | 9 W/m² | - |
| 1778026524 | 22.22° C | 76% | 1009.7 hPa | 0 mm | - | 15 W/m² | - |
| 1778026221 | 22.22° C | 76% | 1009.4 hPa | 0 mm | - | 20 W/m² | - |
| 1778025919 | 22.22° C | 76% | 1009.5 hPa | 0 mm | - | 24 W/m² | - |
| 1778025616 | 22.22° C | 76% | 1009.5 hPa | 0 mm | - | 24 W/m² | - |
| 1778025314 | 22.22° C | 76% | 1009.5 hPa | 0 mm | - | 16 W/m² | - |
| 1778025010 | 22.22° C | 76% | 1009.4 hPa | 0 mm | - | 17 W/m² | - |
| 1778024708 | 22.22° C | 76% | 1009.8 hPa | 0 mm | - | 19 W/m² | - |
| 1778024404 | 22.22° C | 76% | 1009.5 hPa | 0 mm | - | 32 W/m² | - |
| 1778024102 | 22.22° C | 77% | 1009.7 hPa | 0 mm | - | 29 W/m² | - |
| 1778023799 | 22.22° C | 76% | 1009.9 hPa | 0 mm | - | 17 W/m² | - |
| 1778023497 | 22.78° C | 75% | 1009.7 hPa | 0 mm | - | 16 W/m² | - |
| 1778023194 | 22.78° C | 75% | 1009.8 hPa | 0 mm | - | 32 W/m² | - |
| 1778022891 | 22.78° C | 75% | 1009.8 hPa | 0 mm | - | 39 W/m² | - |
| 1778022589 | 22.78° C | 75% | 1010.1 hPa | 0 mm | - | 35 W/m² | - |
| 1778022287 | 22.78° C | 75% | 1009.5 hPa | 0 mm | - | 35 W/m² | - |
| 1778021983 | 22.78° C | 75% | 1009.5 hPa | 0 mm | - | 56 W/m² | - |
| 1778021680 | 22.78° C | 73% | 1009.9 hPa | 0 mm | - | 65 W/m² | - |
| 1778021376 | 22.78° C | 73% | 1010.1 hPa | 0 mm | - | 62 W/m² | - |
| 1778021073 | 22.78° C | 73% | 1009.9 hPa | 0 mm | - | 127 W/m² | - |
| 1778020770 | 22.78° C | 73% | 1009.8 hPa | 0 mm | - | 147 W/m² | - |
| 1778020467 | 22.78° C | 74% | 1010.2 hPa | 0 mm | - | 63 W/m² | - |
| 1778020163 | 22.78° C | 73% | 1010.3 hPa | 0 mm | - | 62 W/m² | - |
* Rain latest hour (hover to see other rain measurements)
** Current wind speed in m/s (hover to see current wind gust speed)